| time (UTC) | temp C | wind direction | speed KPH | gust KPH | rain 1hr cm | rain 24hr cm | rain mn cm | humidity % | barometer mb |
| 20260504045038 | 2 | 92 | 0.0 | 0.0 | 0.00 | 2.90 | 0.00 | 81 | 1021.5 |
| 20260504044025 | 2 | 92 | 0.0 | 0.0 | 0.00 | 2.90 | 0.00 | 83 | 1021.5 |
| 20260504043013 | 1 | 92 | 0.0 | 0.0 | 0.00 | 2.90 | 0.00 | 84 | 1021.3 |
| 20260504042022 | 1 | 92 | 0.0 | 0.0 | 0.00 | 2.90 | 0.00 | 83 | 1021.2 |
| 20260504041025 | 1 | 92 | 0.0 | 0.0 | 0.00 | 2.90 | 0.00 | 83 | 1021.2 |
| 20260504040031 | 1 | 92 | 0.0 | 0.0 | 0.00 | 2.90 | 0.00 | 84 | 1021.0 |
| 20260504035015 | 1 | 92 | 0.0 | 1.6 | 0.00 | 2.90 | 0.00 | 83 | 1020.8 |
| 20260504034022 | 1 | 92 | 1.6 | 3.2 | 0.00 | 2.90 | 0.00 | 84 | 1020.8 |
| 20260504033031 | 1 | 92 | 0.0 | 0.0 | 0.00 | 2.90 | 0.00 | 86 | 1020.9 |
| 20260504032017 | 1 | 92 | 0.0 | 0.0 | 0.00 | 2.90 | 0.00 | 88 | 1020.8 |
| 20260504031026 | 1 | 92 | 0.0 | 0.0 | 0.00 | 2.90 | 0.00 | 88 | 1020.8 |
| 20260504030032 | 0 | 92 | 0.0 | 0.0 | 0.00 | 2.90 | 0.00 | 88 | 1020.8 |
| 20260504025017 | 0 | 92 | 0.0 | 4.8 | 0.00 | 2.90 | 0.00 | 89 | 1020.8 |
| 20260504024022 | 0 | 44 | 1.6 | 4.8 | 0.00 | 2.90 | 0.00 | 89 | 1020.8 |
| 20260504023042 | 0 | 40 | 1.6 | 6.4 | 0.00 | 2.90 | 0.00 | 88 | 1020.8 |
| 20260504022013 | 0 | 88 | 3.2 | 6.4 | 0.00 | 2.90 | 0.00 | 88 | 1020.8 |
| 20260504021023 | 0 | 40 | 1.6 | 6.4 | 0.00 | 2.90 | 0.00 | 88 | 1020.9 |
| 20260504020031 | 0 | 95 | 1.6 | 3.2 | 0.00 | 2.90 | 0.00 | 88 | 1020.8 |
| 20260504015028 | 0 | 95 | 0.0 | 3.2 | 0.00 | 2.90 | 0.00 | 87 | 1021.0 |
| 20260504014017 | 0 | 95 | 1.6 | 4.8 | 0.00 | 2.90 | 0.00 | 87 | 1021.0 |
| 20260504013045 | 0 | 91 | 0.0 | 0.0 | 0.00 | 2.90 | 0.00 | 87 | 1021.0 |
| 20260504012013 | 0 | 91 | 0.0 | 0.0 | 0.00 | 2.90 | 0.00 | 88 | 1020.8 |
| 20260504011023 | 0 | 91 | 0.0 | 0.0 | 0.00 | 2.90 | 0.00 | 86 | 1020.8 |
| 20260504010031 | 0 | 91 | 0.0 | 0.0 | 0.00 | 2.90 | 0.00 | 86 | 1020.7 |
| 20260504005017 | 0 | 91 | 0.0 | 0.0 | 0.00 | 2.90 | 0.00 | 86 | 1020.8 |
| 20260504004025 | 0 | 91 | 0.0 | 0.0 | 0.00 | 2.90 | 0.00 | 86 | 1020.7 |
| 20260504003018 | 0 | 91 | 0.0 | 0.0 | 0.00 | 2.90 | 0.00 | 85 | 1020.8 |
| 20260504002043 | 0 | 91 | 0.0 | 0.0 | 0.00 | 2.90 | 0.00 | 84 | 1020.9 |
| 20260504001024 | 0 | 91 | 0.0 | 0.0 | 0.00 | 2.90 | 0.00 | 84 | 1020.9 |
| 20260504000053 | 0 | 91 | 0.0 | 0.0 | 0.00 | 2.90 | 0.00 | 85 | 1020.9 |
| 20260503235022 | 0 | 91 | 0.0 | 4.8 | 0.00 | 2.90 | 0.00 | 85 | 1021.0 |
| 20260503234012 | 0 | 91 | 0.0 | 0.0 | 0.00 | 2.90 | 0.00 | 83 | 1021.0 |
| 20260503233038 | 0 | 91 | 0.0 | 3.2 | 0.00 | 2.90 | 0.00 | 83 | 1021.1 |
| 20260503232038 | 0 | 91 | 0.0 | 1.6 | 0.00 | 2.90 | 0.00 | 84 | 1021.1 |
| 20260503231024 | 1 | 91 | 3.2 | 3.2 | 0.00 | 2.90 | 0.00 | 81 | 1021.2 |
| 20260503230032 | 1 | 91 | 3.2 | 4.8 | 0.00 | 2.90 | 0.00 | 81 | 1021.3 |
| 20260503225015 | 1 | 92 | 0.0 | 3.2 | 0.00 | 2.90 | 0.00 | 81 | 1021.2 |
| 20260503224022 | 1 | 92 | 1.6 | 3.2 | 0.00 | 2.90 | 0.00 | 82 | 1021.3 |
| 20260503223026 | 1 | 92 | 0.0 | 1.6 | 0.00 | 2.90 | 0.00 | 80 | 1021.3 |
| 20260503222015 | 1 | 92 | 1.6 | 4.8 | 0.00 | 2.90 | 0.00 | 81 | 1021.4 |
| 20260503221022 | 1 | 109 | 0.0 | 1.6 | 0.00 | 2.90 | 0.00 | 79 | 1021.3 |
| 20260503220031 | 1 | 109 | 0.0 | 3.2 | 0.00 | 2.90 | 0.00 | 81 | 1021.2 |
| 20260503215017 | 1 | 109 | 0.0 | 0.0 | 0.00 | 2.90 | 0.00 | 81 | 1021.3 |
| 20260503214026 | 2 | 109 | 0.0 | 4.8 | 0.00 | 2.90 | 0.00 | 77 | 1021.2 |
| 20260503213014 | 2 | 120 | 3.2 | 9.7 | 0.00 | 2.90 | 0.00 | 79 | 1021.2 |
| 20260503212019 | 2 | 130 | 0.0 | 3.2 | 0.00 | 2.90 | 0.00 | 78 | 1021.1 |
| 20260503211026 | 2 | 131 | 1.6 | 3.2 | 0.00 | 2.90 | 0.00 | 77 | 1021.2 |
| 20260503210035 | 2 | 130 | 1.6 | 4.8 | 0.00 | 2.90 | 0.00 | 79 | 1021.1 |
| 20260503205048 | 2 | 130 | 1.6 | 4.8 | 0.00 | 2.90 | 0.58 | 77 | 1021.1 |
| 20260503204014 | 2 | 130 | 1.6 | 6.4 | 0.00 | 2.90 | 0.58 | 77 | 1021.1 |
| 20260503203017 | 3 | 13 | 3.2 | 6.4 | 0.00 | 2.90 | 0.58 | 75 | 1021.2 |
| 20260503202020 | 2 | 59 | 1.6 | 4.8 | 0.00 | 2.90 | 0.58 | 81 | 1021.1 |
| 20260503201023 | 2 | 122 | 3.2 | 4.8 | 0.00 | 2.90 | 0.58 | 84 | 1021.2 |
| 20260503200052 | 2 | 122 | 0.0 | 4.8 | 0.00 | 2.90 | 0.58 | 83 | 1021.3 |
| 20260503195013 | 2 | 61 | 1.6 | 4.8 | 0.00 | 2.90 | 0.58 | 84 | 1021.3 |
| 20260503194018 | 2 | 118 | 0.0 | 3.2 | 0.00 | 2.90 | 0.58 | 85 | 1021.3 |
| 20260503193027 | 2 | 118 | 1.6 | 4.8 | 0.00 | 2.90 | 0.58 | 86 | 1021.2 |
| 20260503192037 | 1 | 134 | 1.6 | 4.8 | 0.00 | 2.90 | 0.58 | 87 | 1021.1 |
| 20260503191024 | 2 | 113 | 1.6 | 4.8 | 0.00 | 2.90 | 0.58 | 86 | 1021.1 |
| 20260503190032 | 2 | 123 | 3.2 | 4.8 | 0.00 | 2.90 | 0.58 | 84 | 1021.0 |
| 20260503185018 | 2 | 93 | 1.6 | 4.8 | 0.00 | 2.90 | 0.58 | 85 | 1021.0 |
| 20260503184040 | 2 | 92 | 0.0 | 3.2 | 0.00 | 2.90 | 0.58 | 82 | 1020.8 |
| 20260503183048 | 3 | 92 | 1.6 | 3.2 | 0.00 | 2.90 | 0.58 | 80 | 1020.7 |
| 20260503182017 | 3 | 92 | 1.6 | 3.2 | 0.00 | 2.90 | 0.58 | 76 | 1020.5 |
| 20260503181025 | 3 | 92 | 1.6 | 3.2 | 0.00 | 2.90 | 0.58 | 76 | 1020.5 |
| 20260503180053 | 3 | 92 | 1.6 | 3.2 | 0.00 | 2.90 | 0.58 | 80 | 1020.4 |
| 20260503175015 | 3 | 92 | 0.0 | 3.2 | 0.00 | 2.90 | 0.58 | 82 | 1020.2 |
| 20260503174019 | 4 | 92 | 1.6 | 3.2 | 0.00 | 2.90 | 0.58 | 78 | 1020.1 |
| 20260503173028 | 5 | 92 | 3.2 | 4.8 | 0.00 | 2.90 | 0.58 | 77 | 1019.9 |
| 20260503172016 | 5 | 92 | 0.0 | 4.8 | 0.00 | 2.90 | 0.58 | 78 | 1019.8 |
| 20260503171024 | 5 | 116 | 1.6 | 6.4 | 0.10 | 2.90 | 0.58 | 79 | 1019.8 |
| 20260503131022 | 2 | 128 | 3.2 | 16.1 | 1.30 | 2.79 | 0.56 | 89 | 1019.7 |
| 20260503081025 | 11 | 342 | 11.3 | 27.4 | 0.00 | 0.00 | 0.00 | 55 | 1017.2 |
| 20260503072019 | 10 | 335 | 11.3 | 16.1 | 0.00 | 0.00 | 0.00 | 55 | 1017.0 |
| 20260503071047 | 9 | 269 | 4.8 | 12.9 | 0.00 | 0.00 | 0.00 | 57 | 1016.9 |
| 20260503055038 | 7 | 104 | 0.0 | 0.0 | 0.00 | 0.00 | 0.00 | 67 | 1017.7 |
| 20260503054021 | 7 | 104 | 0.0 | 1.6 | 0.00 | 0.00 | 0.00 | 68 | 1017.7 |
| 20260503053047 | 7 | 104 | 1.6 | 3.2 | 0.00 | 0.00 | 0.00 | 68 | 1017.6 |
| 20260503052036 | 6 | 104 | 0.0 | 0.0 | 0.00 | 0.00 | 0.00 | 71 | 1017.7 |